TimeCST,TemperatureF,Dew PointF,Humidity,Sea Level PressureIn,VisibilityMPH,Wind Direction,Wind SpeedMPH,Gust SpeedMPH,PrecipitationIn,Events,Conditions,WindDirDegrees,DateUTC
12:53 AM,34.0,25.0,70,29.59,10.0,West,9.2,-,N/A,,Clear,280,2012-12-18 06:53:00
1:53 AM,35.1,25.0,67,29.59,10.0,West,9.2,-,N/A,,Clear,280,2012-12-18 07:53:00
2:53 AM,37.0,25.0,62,29.61,10.0,West,9.2,-,N/A,,Clear,280,2012-12-18 08:53:00
3:53 AM,39.9,25.0,55,29.62,10.0,WNW,13.8,20.7,N/A,,Clear,300,2012-12-18 09:53:00
4:53 AM,41.0,24.1,51,29.62,10.0,NW,16.1,25.3,N/A,,Clear,310,2012-12-18 10:53:00
5:53 AM,42.1,21.0,43,29.65,10.0,NW,19.6,26.5,N/A,,Clear,310,2012-12-18 11:53:00
6:53 AM,41.0,17.1,38,29.70,10.0,WNW,13.8,-,N/A,,Clear,300,2012-12-18 12:53:00
7:53 AM,39.9,17.1,40,29.73,10.0,West,11.5,-,N/A,,Clear,280,2012-12-18 13:53:00
8:53 AM,42.1,19.0,40,29.73,10.0,WNW,13.8,18.4,N/A,,Clear,300,2012-12-18 14:53:00
9:53 AM,46.0,19.9,35,29.76,10.0,NW,18.4,25.3,N/A,,Clear,320,2012-12-18 15:53:00
10:53 AM,51.1,17.1,26,29.77,10.0,NNW,17.3,26.5,N/A,,Clear,330,2012-12-18 16:53:00
11:53 AM,53.1,12.9,20,29.80,10.0,NNW,19.6,25.3,N/A,,Clear,330,2012-12-18 17:53:00
12:53 PM,54.0,12.0,19,29.79,10.0,NNW,17.3,-,N/A,,Clear,340,2012-12-18 18:53:00
1:53 PM,54.0,12.0,19,29.78,10.0,NW,13.8,-,N/A,,Clear,310,2012-12-18 19:53:00
2:53 PM,54.0,12.0,19,29.78,10.0,NW,10.4,-,N/A,,Clear,310,2012-12-18 20:53:00
3:53 PM,53.1,10.9,19,29.78,10.0,NW,5.8,-,N/A,,Clear,310,2012-12-18 21:53:00
4:53 PM,46.9,14.0,27,29.80,10.0,NNW,5.8,-,N/A,,Clear,330,2012-12-18 22:53:00
5:53 PM,35.1,18.0,50,29.81,10.0,North,4.6,-,N/A,,Clear,350,2012-12-18 23:53:00
6:53 PM,34.0,17.1,50,29.81,10.0,NNW,4.6,-,N/A,,Clear,340,2012-12-19 00:53:00
7:53 PM,33.1,18.0,54,29.82,10.0,Calm,Calm,-,N/A,,Clear,0,2012-12-19 01:53:00
8:53 PM,30.9,19.9,64,29.81,10.0,Calm,Calm,-,N/A,,Clear,0,2012-12-19 02:53:00
9:53 PM,30.9,23.0,72,29.79,10.0,Calm,Calm,-,N/A,,Clear,0,2012-12-19 03:53:00
10:53 PM,30.9,23.0,72,29.80,10.0,Calm,Calm,-,N/A,,Clear,0,2012-12-19 04:53:00
11:53 PM,30.9,21.9,69,29.80,10.0,Calm,Calm,-,N/A,,Clear,0,2012-12-19 05:53:00